Regional Weather Roundup
Issued by NWS Grand Forks, ND

Home | Current Version | Previous Version | Graphics & Text | Print | Product List | Glossary On
Versions: 1 2 3 4 5 6 7 8 9 10 11 12 13 14 15 16 17 18 19 20 21 22 23 24 25 26 27 28 29 30 31 32 33 34 35 36 37 38 39 40 41 42 43 44 45 46 47 48 49 50
000
ASUS43 KFGF 012231
RWRFGF
PRAIRIE TO PINES  WEATHER ROUNDUP
NATIONAL WEATHER SERVICE EASTERN NORTH DAKOTA/GRAND FORKS ND
500 PM CDT FRI AUG 01 2014

 **SATELLITE DATA USED TO AUGMENT SKY COVER AT AUTOMATED STATIONS**
 *****  WEATHER ACROSS EASTERN NORTH DAKOTA  *****

CITY           SKY/WX    TMP DP  RH WIND       PRES   REMARKS
GRAND FORKS    MOSUNNY   82  58  43 CALM      30.06S
GRAND FRKS AFB MOSUNNY   81  61  50 VRB1      30.07F
GRAND FRKS NWS   N/A     82 N/A N/A E5          N/A
DEVILS LAKE    MOSUNNY   81  55  41 SE8       30.08S
FARGO          MOSUNNY   83  56  39 NE9       30.06S
WAHPETON ARPT  MOCLDY    81  57  44 N7        30.06S
$$

 ***** WEATHER ACROSS CENTRAL AND WESTERN NORTH DAKOTA  *****

CITY           SKY/WX    TMP DP  RH WIND       PRES   REMARKS
BISMARCK       CLOUDY    86  57  37 E10       30.04F
MINOT          CLOUDY    79  61  53 NE7       30.07F
JAMESTOWN      SUNNY     82  57  42 SE3       30.07F
MINOT AFB      CLOUDY    81  59  47 E6        30.07F
GARRISON         N/A     77  64  64 SE3       30.06F
WILLISTON      SUNNY     85  53  33 VRB3      30.09S
DICKINSON      MOSUNNY   83  60  45 E9        30.06F
HETTINGER      SUNNY     88  52  29 VRB7      30.05F
$$

 *****  OTHER AIRPORT OBSERVATIONS IN OUR AREA  *****

CITY           SKY/WX    TMP DP  RH WIND       PRES   REMARKS
WALHALLA       FAIR      79  61  53 S3          N/A
GRAFTON AIRPOR FAIR      81  59  47 NE6       30.06S
VALLEY CITY AR MOCLDY    81  59  47 NE8       30.08S
CANDO          FAIR      77  59  53 S7        30.09F
CAVALIER APRT  FAIR      82  59  44 NE3       30.06S
GWINNER        PTCLDY    82  59  44 CALM      30.08S
SHEYENNE NWR     N/A     86  60  40 NE7       29.95S
ROLLA            N/A     77  57  50 S6        30.10F
 ***** THE ABOVE OBSERVATIONS ARE NON NWS ARE NOT QUALITY
       CONTROLLED AND MAY MIS-REPORT RAIN FOR SNOW...
$$

  *****  WEATHER ACROSS NORTHERN MINNESOTA  *****

CITY           SKY/WX    TMP DP  RH WIND       PRES   REMARKS
FLAG ISLAND    SUNNY     79  46  31 CALM      30.05S
WARROAD        SUNNY     77  57  50 SE5       30.08S
ROSEAU         SUNNY     81  54  39 CALM      30.06F
HALLOCK        MOSUNNY   81  61  50 NE6       30.05S
THF RVR FALLS  MOSUNNY   79  54  41 NE6       30.08R
BAUDETTE       SUNNY     78  49  35 VRB5      30.08F
WASKISH        SUNNY     79  46  31 CALM      30.07S
CROOKSTON      SUNNY     79  59  50 NW5       30.08R
$$
  *****  WEATHER ACROSS CENTRAL AND WEST MINNESOTA  *****

CITY           SKY/WX    TMP DP  RH WIND       PRES   REMARKS
FOSSTON        MOSUNNY   81  57  44 N5        30.08F
BEMIDJI        SUNNY     78  54  43 N8        30.07F
PARK RAPIDS    SUNNY     80  48  32 N8        30.07S
ELBOW LAKE     FAIR      78  62  58 S6        30.06F
WADENA         SUNNY     81  55  41 N3        30.06F
DETROIT LAKES  SUNNY     79  52  38 N3        30.09S
MOORHEAD       SUNNY     81  54  39 N8        30.07S
FERGUS FALLS   MOSUNNY   81  52  36 NW9       30.05S
MORRIS MN      MOSUNNY   77  63  61 NE6       30.06S
STAPLES        MOSUNNY   82  52  34 NW6       30.06S
$$
  *****  WEATHER ELSEWHERE ACROSS MINNESOTA  *****

CITY           SKY/WX    TMP DP  RH WIND       PRES   REMARKS
DULUTH         PTSUNNY   71  53  52 SE8       30.07R THUNDER
INTRNTL FALLS  SUNNY     78  49  35 VRB3      30.06S
ELY            SUNNY     75  48  38 N3        30.06S
CLOQUET        MOSUNNY   75  61  60 CALM      30.06R
WHEATON        MOSUNNY   81  61  50 NW7       30.08S
BRAINERD       MOSUNNY   79  59  50 N3        30.06F
HIBBING        MOSUNNY   81  56  42 VRB3      30.05S
ALEXANDRIA     SUNNY     81  55  40 NW9       30.09S
SAINT CLOUD    MOSUNNY   82  57  42 W8        30.05R
MINNEAPOLIS    MOSUNNY   85  55  35 CALM      30.03F
$$

  *****  WEATHER ACROSS SOUTH DAKOTA  *****

CITY           SKY/WX    TMP DP  RH WIND       PRES   REMARKS
SIOUX FALLS    MOSUNNY   82  59  45 E5        30.09S
BROOKINGS      NOT AVBL
WATERTOWN      MOSUNNY   82  54  37 S5        30.09F
HURON          SUNNY     85  56  37 SE7       30.05F
SISSETON         N/A     84  59  42 NE3       30.05F
ABERDEEN       SUNNY     84  52  33 E7        30.06F
MITCHELL       SUNNY     83  56  39 VRB7      30.08S
PIERRE         SUNNY     91  56  30 E17       29.99F
MOBRIDGE       PTSUNNY   88  60  38 SE13      30.00F
RAPID CITY     PTSUNNY   79  51  37 SE6       30.07F
$$

  *****  SOME WEATHER IN NEARBY STATES *****

CITY           SKY/WX    TMP DP  RH WIND       PRES   REMARKS
GLASGOW MT     PTSUNNY   89  51  27 S8        30.04F
GREAT FALLS MT SUNNY     91  41  17 E7        30.13F
CHEYENNE WY    MOSUNNY   77  44  30 S15       30.30S
SCOTTSBLUFF NE SUNNY     89  38  16 E9        30.15F
OMAHA NE       MOSUNNY   83  61  47 NE10      30.08S
DES MOINES IA  PTSUNNY   82  58  43 E3        30.06F
DAVENPORT IA   MOSUNNY   82  61  48 W5        30.06F
CHICAGO IL     CLOUDY    78  58  49 S9        30.05F
EAU CLAIRE WI  MOSUNNY   82  61  48 N7        30.04S
LA CROSSE WI   MOSUNNY   85  59  41 W9        30.04S
$$

  *****  SOME NATIONAL WEATHER *****

CITY           SKY/WX    TMP DP  RH WIND       PRES   REMARKS
LA GUARDIA NY  CLOUDY    78  66  66 S10       30.19F
RALEIGH NC     LGT RAIN  65  61  87 NE13      30.10S FOG
ATLANTA GA     PTSUNNY   78  67  68 E9        30.04F
NEW ORLEANS LA CLOUDY    86  66  51 S8        29.96F
OKLAHOMA CITY  PTSUNNY   86  63  45 SE7       30.05F
ALBUQUERQUE NM MOSUNNY   79  56  45 E14G23    30.21F
SALT LAKE CITY MOSUNNY   90  47  22 NW9       30.10F
LOS ANGELES CA MOSUNNY   74  63  68 W14G21    29.89F
BOISE ID       SUNNY     96  46  18 N7        30.00F HX  92
SEATTLE WA     CLOUDY    82  52  34 N14G25    29.99F
$$

*** WEATHER ACROSS MANITOBA...SASKATCHEWAN AND ONTARIO ***
                ***ONTARIO***

CITY           SKY/WX    TMP DP  RH WIND       PRES   REMARKS
GERALDTON      PTSUNNY   68  52  56 CALM      30.06S
THUNDER BAY    PTSUNNY   73  55  53 S8        30.06F
SIOUX LOOKOUT  MOSUNNY   75  50  41 W8        30.06S
TORONTO        LGT RAIN  68  63  83 NE6       30.11S
BIG TROUT LK   SUNNY     70  48  46 SE5       30.02
PICKLE LAKE    MOSUNNY   75  46  35 VRB2      30.02F
DRYDEN         SUNNY     77  39  25 NW6       30.07S
KENORA         PTSUNNY   79  41  25 N5        30.08
$$
                *** MANITOBA***

CITY           SKY/WX    TMP DP  RH WIND       PRES   REMARKS
BRANDON        PTSUNNY   82  57  42 W7        30.07F
DAUPHIN        SUNNY     81  66  61 N7        30.02S
ISLAND LAKE    CLOUDY    73  52  46 E5        29.99F
PILOT MOUND      N/A     79  59  50 SW3         N/A
THE PAS        CLOUDY   N/A N/A N/A N5          N/A
THOMPSON       LGT RAIN  66  64  94 NW14      29.99R SMOKE
WINNIPEG       PTSUNNY   82  57  42 NW9       30.04S
LYNN LAKE      PTSUNNY   73  50  43 N10G17    30.08R
CHURCHILL      CLOUDY    57  54  88 N18       30.01R
GILLAM         LGT RAIN  66  64  94 S3        29.94R
$$
                ***SASKATCHEWAN***

CITY           SKY/WX    TMP DP  RH WIND       PRES   REMARKS
ESTEVAN        MOSUNNY   81  61  50 S8        30.10F
KINDERSLEY     MOSUNNY   75  61  60 N7        30.17F
LLOYDMINSTER   PTSUNNY   72  57  60 N12       30.21S
PRINCE ALBERT  PTSUNNY   73  63  68 NW13      30.12
REGINA         MOSUNNY   82  59  44 S8        30.07F
YORKTON        MOSUNNY   82  59  44 S5        30.05F
N. BATTLEFORD    N/A     73  61  64 N14       30.18S
LA RONGE       LGT RAIN  72  57  60 NE8       30.13F
SASKATOON      PTSUNNY   75  63  64 N14G21    30.14S
SWIFT CURRENT  LGT RAIN  63  59  88 N15G26    30.16R
$$
NOTE: THESE ARE AUTOMATED STATIONS WITH LIMITED QUALITY CONTROL
      "FAIR" INDICATES FEW OR NO CLOUDS BELOW 12,000 FEET WITH NO
      SIGNIFICANT WEATHER AND/OR OBSTRUCTIONS TO VISIBILITY.
      SKY/WX - SKY CONDITION AND SIGNIFICANT WEATHER.
      TMP - AIR TEMPERATURE.    DP   - DEWPOINT TEMPERATURE.
      RH  - RELATIVE HUMIDITY.  PRES - PRESSURE.
      HX  - HEAT INDEX.         WCI  - WIND CHILL INDEX.
$


USA.gov is the U.S. government's official web portal to all federal, state and local government web resources and services.